Location: Narvik
(68.4360°N, 17.4370°E)
Time: 07:25:43
(UTC+02:00)

QB50P2 - Visible Passes

Search period start: 18 September 2019 00:00
Search period end: 28 September 2019 00:00
Orbit: 593 x 612 km, 97.9° (Epoch: 16 September)

Date Brightness Start Highest point End Pass type
(mag) Time Alt. Az. Time Alt. Az. Time Alt. Az.
18 Sep ? 00:36:44 10° NNE 00:40:17 26° E 00:41:23 23° ESE visible
18 Sep ? 02:12:22 10° NNE 02:16:37 87° ESE 02:18:11 38° SSW visible
18 Sep ? 03:48:20 10° NNE 03:52:07 32° NW 03:54:59 15° WSW visible
19 Sep ? 00:48:32 10° NNE 00:52:16 30° E 00:53:17 26° ESE visible
19 Sep ? 02:24:16 10° NNE 02:28:30 81° WNW 02:30:05 38° SSW visible
19 Sep ? 04:00:15 10° NNE 04:03:54 29° NW 04:06:53 14° W visible
19 Sep ? 23:26:17 10° ENE 23:27:12 11° ENE 23:28:08 10° E visible
20 Sep ? 01:00:22 10° NNE 01:04:15 34° E 01:05:12 30° ESE visible
20 Sep ? 02:36:09 10° NNE 02:40:22 71° WNW 02:41:59 36° SW visible
20 Sep ? 04:12:09 10° NNE 04:15:41 27° NW 04:18:47 12° W visible
20 Sep ? 23:37:29 10° NE 23:39:17 12° ENE 23:40:18 12° E visible
21 Sep ? 01:12:13 10° NNE 01:16:13 40° E 01:17:06 35° SE visible
21 Sep ? 02:48:03 10° NNE 02:52:13 61° WNW 02:53:53 34° SW visible
21 Sep ? 04:24:02 10° NNE 04:27:27 24° NW 04:30:41 11° W visible
21 Sep ? 23:49:01 10° NE 23:51:21 14° ENE 23:52:12 14° E visible
22 Sep ? 01:24:04 10° NNE 01:28:10 46° E 01:29:00 40° SE visible
22 Sep ? 02:59:57 10° NNE 03:04:04 53° WNW 03:05:47 31° WSW visible
22 Sep ? 04:35:56 10° NNE 04:39:13 23° NW 04:42:31 10° W visible
23 Sep ? 00:00:40 10° NE 00:03:24 17° E 00:04:06 16° E visible
23 Sep ? 01:35:56 10° NNE 01:40:06 54° ESE 01:40:54 46° SE visible
23 Sep ? 03:11:51 10° NNE 03:15:54 47° NW 03:17:41 28° WSW visible
23 Sep ? 04:47:49 10° NNE 04:50:58 21° NNW 04:54:08 10° W visible
24 Sep ? 00:12:23 10° NE 00:15:26 19° E 00:16:00 19° E visible
24 Sep ? 01:47:48 10° NNE 01:52:01 64° ESE 01:52:47 52° SSE visible
24 Sep ? 03:23:45 10° NNE 03:27:43 41° NW 03:29:35 26° WSW visible
24 Sep ? 04:59:41 10° NNE 05:02:43 20° NNW 05:05:45 10° WNW visible
25 Sep ? 00:24:08 10° NE 00:27:28 22° E 00:27:54 22° E visible
25 Sep ? 01:59:41 10° NNE 02:03:55 74° ESE 02:04:41 57° S visible
25 Sep ? 03:35:39 10° NNE 03:39:32 37° NW 03:41:29 23° W visible
25 Sep ? 05:11:34 10° NNE 05:14:28 18° NNW 05:17:21 10° WNW visible
26 Sep ? 00:35:56 10° NNE 00:39:28 25° E 00:39:48 25° E visible
26 Sep ? 02:11:34 10° NNE 02:15:49 86° ESE 02:16:35 59° SSW visible
26 Sep ? 03:47:32 10° NNE 03:51:19 33° NW 03:53:23 21° W visible
26 Sep ? 05:23:25 10° NNE 05:26:11 17° NNW 05:28:57 10° WNW visible
27 Sep ? 00:47:44 10° NNE 00:51:28 29° E 00:51:42 29° E visible
27 Sep ? 02:23:27 10° NNE 02:27:42 82° WNW 02:28:29 58° SW visible
27 Sep ? 03:59:26 10° NNE 04:03:07 30° NW 04:05:17 19° W visible
27 Sep ? 05:35:17 10° NNE 05:37:55 16° NNW 05:40:33 10° WNW visible
27 Sep ? 23:25:33 10° ENE 23:26:23 10° ENE 23:26:48 10° ENE visible
